Wind_Speed
3 3 2 2 2 2 2 1 2 1 1 2 2 2 2 2 2 2 2 3 4 4 4 4 5 6 6 6 7 8 8 7 7 7 6 6 5 5 5 5 6 7 7
3 2 2 2 2 2 2 2 2 2 2 2 2 2 2 2 2 2 3 4 4 5 5 5 5 6 7 7 8 8 8 8 8 8 7 7 6 6 6 5 5 6 6
3 2 2 2 2 2 2 2 2 3 3 2 2 2 2 3 3 3 4 4 5 5 6 6 6 6 7 7 8 8 8 9 9 9 8 8 7 7 6 6 5 5 6
3 3 2 2 2 2 3 3 3 3 3 3 2 2 3 3 4 4 4 4 5 5 6 6 6 6 7 7 8 8 9 9 10 10 9 9 8 8 8 7 6 6 6
3 3 2 2 2 3 3 3 3 3 3 3 2 2 2 3 4 4 4 4 5 5 6 6 6 6 7 7 8 9 9 9 10 10 10 10 9 9 8 8 7 6 6
3 2 3 2 2 2 2 2 3 3 3 3 2 3 2 2 3 4 4 4 5 5 6 6 6 6 7 7 8 8 9 9 10 10 10 10 10 9 9 9 8 7 6
3 3 3 3 3 3 3 2 2 2 3 4 2 3 2 2 2 3 3 4 4 5 5 6 6 7 7 7 8 8 9 10 10 10 10 10 10 10 10 10 9 9 8
4 3 3 4 4 3 3 2 2 2 3 4 3 3 2 3 3 4 4 4 5 5 5 6 7 7 7 7 8 8 9 10 10 10 10 10 10 11 10 10 10 9 9
4 4 4 4 4 3 3 2 2 3 3 3 4 3 3 4 4 4 4 5 5 5 5 6 6 6 6 7 7 8 8 9 10 10 10 11 11 11 11 11 10 10 10
3 4 4 4 4 4 3 2 2 3 3 3 4 3 3 4 4 4 4 5 5 5 5 5 6 6 6 6 7 8 8 9 9 10 10 10 11 11 11 11 11 10 10
3 3 3 4 3 3 2 2 2 3 3 3 4 3 3 4 4 4 4 4 4 5 5 6 6 6 6 6 7 7 8 8 8 9 10 10 11 11 11 11 11 11 11
4 3 3 3 3 2 2 2 2 3 3 3 4 3 3 4 4 4 4 4 3 4 5 5 5 6 6 6 6 7 7 8 8 9 9 9 10 11 11 11 12 12 12
2 3 3 3 2 2 1 2 2 2 2 3 4 4 3 3 3 4 3 3 3 4 4 4 5 5 5 6 6 6 7 8 8 8 9 9 9 10 10 11 12 12 12
2 2 2 2 1 1 1 2 1 2 2 3 3 3 3 3 3 3 3 3 3 3 3 3 3 4 4 5 5 6 7 7 8 9 9 9 9 9 10 10 11 12 12
3 2 3 2 1 1 2 1 1 2 2 3 3 3 3 3 3 2 2 2 3 3 2 3 3 3 3 4 5 6 6 6 7 8 8 8 9 9 9 9 10 10 12
3 2 3 2 2 2 2 2 1 1 2 2 3 2 2 2 3 2 2 2 2 2 2 2 2 2 2 3 3 5 6 5 6 7 7 8 8 8 8 9 10 10 10
4 3 2 3 3 3 3 3 2 2 2 2 2 2 1 2 3 3 2 2 2 2 2 2 1 1 1 2 2 3 4 4 4 5 7 7 8 8 8 8 9 9 9
4 3 3 3 3 3 4 3 3 2 3 3 2 2 1 1 2 3 2 2 2 2 1 1 2 1 1 1 1 2 3 3 4 5 6 6 7 7 7 7 8 8 8
4 3 3 4 4 4 4 3 3 3 3 3 2 1 1 1 2 3 2 2 2 1 1 1 2 1 1 1 0 1 2 2 3 4 4 5 5 6 6 7 7 7 8
3 4 4 4 4 4 3 3 3 3 3 2 1 1 1 1 2 2 2 2 2 2 1 1 1 1 1 1 1 1 1 1 2 2 3 4 4 5 6 6 6 7 8
4 4 4 4 4 4 4 3 3 3 3 2 1 1 1 2 2 2 2 3 2 2 2 2 2 1 1 1 1 1 2 1 2 2 2 3 4 5 6 6 6 6 7
3 4 4 3 3 3 3 3 3 3 3 2 1 1 1 2 1 2 2 2 2 2 2 2 2 2 1 1 1 1 1 1 2 2 3 3 3 4 5 5 5 6 7
4 4 3 3 3 3 3 3 3 2 2 1 1 1 1 1 1 1 2 3 3 2 2 2 2 2 2 2 2 2 2 2 2 2 3 3 4 4 5 5 6 7 7
3 4 3 3 3 4 3 3 3 3 2 2 2 2 1 1 1 1 1 2 2 2 2 2 2 2 2 2 2 2 2 3 3 2 3 3 4 5 5 5 6 6 7
4 4 3 4 4 4 4 3 3 4 4 3 2 2 1 1 1 2 1 2 2 2 2 2 2 2 2 3 3 3 3 3 3 4 4 4 5 5 6 6 7 7 8
4 4 3 3 4 4 4 3 3 3 4 4 3 3 3 2 2 2 2 1 1 1 1 1 1 2 2 3 3 3 4 4 5 5 6 6 6 7 7 8 8 8 9
Wind_Direction
9 11 22 22 22 19 20 10 4 348 329 323 317 313 288 265 259 243 237 235 233 231 229 221 221 222 222 220 214 213 214 214 209 210 211 208 204 198 193 191 185 180 178
1 359 357 358 360 358 335 321 331 324 312 313 303 291 285 270 256 245 247 240 239 239 237 237 234 233 228 225 222 220 219 219 217 219 219 216 211 207 207 206 196 191 187
354 354 347 336 325 330 324 312 312 321 304 303 299 283 284 276 260 254 255 248 244 239 237 240 241 236 234 231 229 228 224 221 220 223 222 218 215 212 213 212 211 206 197
338 336 335 336 323 315 320 317 320 325 316 312 303 289 284 276 267 265 261 252 246 244 245 245 247 241 239 236 235 233 229 226 225 225 224 221 218 213 214 214 216 220 211
340 338 321 320 324 321 320 326 327 326 323 322 315 300 285 269 268 272 263 249 245 248 252 252 256 251 242 239 238 237 234 230 227 225 226 223 219 216 215 214 216 219 221
336 335 322 319 319 318 315 318 329 337 331 319 312 310 294 270 269 274 269 257 253 256 253 253 256 253 247 243 241 239 235 231 225 226 227 225 222 220 217 215 218 224 228
338 328 312 310 311 313 313 308 311 319 323 327 314 309 290 274 282 278 276 271 265 261 254 249 250 252 251 249 246 240 235 230 226 228 228 226 223 222 223 222 226 227 225
322 326 315 316 317 312 305 306 300 303 311 315 306 303 290 293 296 292 283 279 275 267 263 256 249 251 255 252 249 243 237 231 228 229 230 227 225 225 227 227 227 226 228
321 323 314 309 306 304 306 303 303 305 308 311 305 300 292 290 294 294 289 285 280 275 271 266 257 253 255 253 248 243 234 233 229 227 229 230 232 229 227 228 227 228 232
320 322 319 310 298 288 292 286 295 302 304 309 305 298 296 296 299 299 292 286 282 278 273 269 265 259 254 254 248 243 235 233 231 230 230 231 231 233 233 233 231 231 235
312 315 319 323 310 289 288 287 298 304 312 310 308 305 305 305 306 304 295 290 285 280 275 272 267 259 256 252 246 243 237 231 233 232 233 234 235 237 234 235 235 235 239
308 298 309 326 329 317 281 286 307 319 327 327 319 312 311 313 314 310 298 296 292 287 282 275 266 256 254 250 245 244 240 234 232 231 234 235 236 236 237 236 238 239 242
298 279 294 322 328 332 291 278 296 317 333 348 339 321 313 314 314 312 300 298 299 294 290 285 274 263 255 250 246 242 241 244 237 237 238 236 233 233 234 237 240 242 242
290 264 252 263 291 303 280 263 280 308 333 345 341 324 320 315 312 321 317 307 300 298 298 296 282 269 259 250 246 241 241 242 240 238 237 236 235 237 241 241 244 245 244
292 271 236 233 264 298 287 264 268 286 308 337 338 333 327 328 323 323 324 315 310 303 305 302 287 267 257 251 248 242 239 241 239 240 242 244 242 243 245 245 246 247 248
290 265 238 238 260 274 285 277 261 284 302 325 333 335 336 339 345 332 319 320 321 314 310 310 299 278 268 262 250 243 239 240 238 238 240 241 244 245 245 246 247 246 248
295 279 254 246 260 275 281 277 268 282 308 329 323 332 346 353 351 352 334 325 329 326 324 330 334 321 297 271 249 243 240 242 240 243 241 240 245 245 245 248 245 245 249
283 272 260 258 266 276 282 275 265 282 308 319 322 310 334 356 0 355 349 346 338 338 347 347 352 343 316 311 222 222 243 252 244 245 244 238 240 243 244 246 244 245 251
275 265 261 268 271 272 279 268 273 290 314 320 331 340 338 0 357 353 356 352 3 4 347 344 354 2 12 14 22 245 240 240 240 247 243 237 240 239 240 245 248 247 253
274 261 261 264 266 263 264 271 272 280 303 317 314 329 349 354 358 3 15 7 8 23 12 1 356 352 351 343 336 282 268 252 252 259 251 248 244 244 247 256 259 257 260
280 267 265 263 258 250 248 270 273 277 286 289 268 297 327 328 2 24 31 28 28 20 5 2 12 3 344 331 320 304 297 285 270 262 270 273 260 256 257 260 260 260 264
285 277 271 260 254 249 248 257 260 268 274 258 271 315 319 325 3 28 38 31 20 8 4 5 4 358 352 357 329 323 310 290 278 275 282 277 272 270 267 263 260 262 264
293 277 266 260 256 258 264 265 256 260 256 233 256 287 301 353 358 27 43 31 20 7 359 5 10 6 359 351 341 317 310 306 287 285 285 279 275 274 265 264 263 266 272
289 270 250 255 257 255 256 256 259 248 235 236 254 272 291 331 345 352 12 8 5 3 2 1 359 360 360 355 344 333 317 301 288 287 284 279 277 278 277 276 275 275 277
284 273 249 248 247 248 246 249 254 244 238 237 257 256 271 291 310 326 346 3 354 349 351 349 348 351 348 342 336 330 325 319 312 308 299 291 287 285 284 283 283 282 280
279 271 248 250 245 244 245 245 256 253 234 234 247 247 250 265 282 296 304 333 337 338 334 326 330 339 339 335 330 325 322 314 310 307 302 294 287 286 286 285 282 283 283
Height
5888 5887 5887 5886 5886 5885 5885 5885 5884 5884 5884 5883 5883 5883 5882 5882 5882 5882 5881 5881 5881 5881 5881 5881 5882 5882 5882 5883 5883 5884 5884 5885 5885 5886 5886 5886 5887 5887 5888 5888 5888 5888 5889
5888 5887 5886 5886 5886 5885 5885 5885 5884 5884 5884 5883 5883 5882 5882 5882 5881 5881 5881 5881 5881 5881 5881 5881 5881 5881 5881 5882 5882 5883 5884 5884 5885 5885 5886 5886 5887 5887 5887 5888 5888 5888 5889
5887 5887 5886 5886 5885 5885 5885 5884 5884 5884 5883 5883 5882 5882 5881 5881 5881 5881 5880 5880 5880 5880 5880 5880 5880 5880 5881 5881 5881 5882 5882 5883 5884 5884 5885 5885 5886 5886 5887 5887 5888 5888 5889
5887 5887 5886 5885 5885 5885 5884 5884 5884 5883 5883 5882 5881 5881 5881 5880 5880 5880 5880 5879 5879 5879 5879 5879 5879 5880 5880 5880 5880 5881 5881 5882 5882 5883 5884 5885 5885 5886 5886 5887 5887 5888 5888
5887 5886 5885 5885 5885 5884 5884 5883 5883 5883 5882 5881 5881 5880 5880 5879 5879 5879 5879 5878 5878 5878 5878 5878 5878 5878 5879 5879 5879 5880 5880 5880 5881 5882 5883 5884 5884 5885 5886 5886 5887 5888 5888
5886 5885 5885 5885 5884 5884 5884 5883 5883 5882 5882 5881 5880 5880 5879 5879 5878 5878 5878 5878 5877 5877 5877 5877 5877 5877 5877 5877 5878 5878 5878 5879 5879 5880 5881 5883 5883 5884 5885 5886 5886 5887 5887
5885 5885 5885 5884 5884 5884 5883 5883 5882 5882 5881 5880 5880 5879 5879 5878 5877 5877 5877 5876 5876 5876 5876 5876 5876 5876 5876 5876 5876 5876 5877 5877 5878 5879 5880 5881 5882 5883 5884 5885 5885 5886 5887
5885 5885 5884 5884 5883 5883 5882 5882 5881 5881 5881 5880 5879 5878 5878 5877 5877 5876 5876 5875 5875 5875 5874 5874 5874 5874 5874 5874 5874 5875 5875 5876 5877 5878 5879 5880 5881 5882 5882 5883 5884 5885 5886
5884 5884 5883 5883 5882 5882 5881 5881 5881 5880 5880 5879 5878 5878 5877 5877 5876 5875 5875 5874 5874 5873 5873 5872 5872 5872 5873 5873 5873 5873 5873 5874 5875 5877 5878 5878 5879 5880 5881 5882 5882 5883 5884
5884 5883 5883 5882 5882 5881 5881 5880 5880 5880 5879 5878 5878 5877 5876 5876 5875 5874 5874 5873 5872 5872 5871 5871 5871 5871 5871 5871 5871 5871 5872 5873 5874 5875 5876 5877 5878 5878 5879 5880 5881 5882 5883
5883 5882 5882 5881 5881 5880 5880 5880 5879 5879 5878 5878 5877 5876 5875 5875 5874 5873 5872 5872 5871 5870 5870 5869 5869 5869 5869 5869 5870 5870 5870 5871 5872 5873 5874 5875 5876 5877 5878 5879 5879 5880 5881
5882 5882 5881 5881 5880 5880 5879 5879 5879 5878 5878 5877 5876 5875 5874 5874 5873 5872 5871 5870 5870 5869 5869 5868 5868 5868 5868 5868 5868 5868 5869 5870 5871 5871 5872 5873 5874 5874 5875 5877 5877 5878 5879
5881 5881 5880 5880 5880 5879 5879 5878 5878 5878 5877 5876 5875 5874 5873 5873 5872 5871 5870 5869 5869 5868 5867 5867 5866 5867 5867 5867 5867 5867 5868 5868 5869 5870 5870 5871 5872 5873 5874 5875 5875 5876 5877
5880 5880 5880 5880 5879 5879 5878 5878 5877 5877 5876 5875 5874 5874 5873 5872 5871 5870 5869 5868 5868 5867 5866 5866 5866 5865 5865 5865 5866 5866 5866 5867 5867 5868 5869 5870 5870 5871 5872 5872 5873 5874 5874
5879 5879 5879 5879 5878 5878 5877 5877 5876 5876 5875 5875 5874 5873 5872 5871 5870 5869 5869 5868 5867 5866 5866 5865 5865 5865 5864 5864 5864 5864 5865 5865 5866 5867 5867 5868 5869 5869 5870 5870 5871 5871 5872
5878 5878 5877 5877 5877 5877 5877 5876 5876 5875 5875 5874 5873 5872 5872 5871 5870 5869 5868 5867 5866 5866 5865 5865 5864 5864 5863 5863 5863 5863 5863 5864 5864 5865 5866 5866 5867 5867 5868 5868 5869 5869 5869
5876 5876 5876 5876 5876 5876 5876 5875 5875 5875 5874 5874 5873 5872 5871 5870 5870 5869 5868 5867 5866 5865 5865 5864 5863 5863 5863 5862 5862 5862 5862 5863 5863 5864 5864 5864 5865 5865 5866 5866 5866 5867 5867
5875 5875 5875 5875 5875 5875 5875 5874 5874 5874 5873 5873 5872 5871 5870 5870 5869 5868 5867 5866 5865 5865 5864 5864 5863 5862 5862 5862 5861 5861 5861 5862 5862 5862 5863 5863 5863 5864 5864 5864 5864 5865 5865
5874 5874 5874 5874 5874 5874 5874 5873 5873 5873 5872 5872 5871 5870 5870 5869 5869 5868 5867 5866 5865 5865 5864 5863 5863 5862 5862 5862 5861 5861 5861 5861 5861 5861 5861 5861 5862 5862 5862 5863 5863 5863 5863
5872 5872 5872 5872 5872 5872 5872 5872 5872 5872 5871 5871 5870 5870 5869 5869 5868 5867 5867 5866 5865 5865 5864 5863 5863 5862 5862 5861 5861 5861 5860 5860 5861 5861 5860 5860 5860 5861 5861 5861 5861 5861 5861
5871 5871 5871 5871 5871 5871 5871 5871 5871 5871 5870 5870 5870 5869 5869 5869 5868 5867 5866 5866 5865 5864 5864 5863 5863 5862 5861 5861 5861 5861 5860 5860 5860 5860 5860 5859 5859 5859 5860 5860 5860 5860 5859
5869 5869 5869 5869 5869 5869 5870 5870 5870 5870 5869 5869 5869 5869 5868 5868 5867 5867 5866 5866 5865 5864 5864 5863 5862 5862 5861 5861 5861 5860 5860 5860 5860 5859 5859 5859 5859 5858 5858 5858 5858 5858 5858
5868 5868 5868 5868 5868 5868 5869 5869 5869 5869 5869 5869 5869 5868 5868 5867 5867 5867 5866 5865 5865 5864 5864 5863 5862 5862 5861 5861 5860 5860 5860 5859 5859 5859 5859 5858 5858 5857 5857 5857 5857 5856 5856
5867 5867 5867 5867 5867 5867 5867 5868 5868 5868 5868 5868 5868 5868 5868 5867 5867 5866 5866 5865 5864 5864 5863 5863 5862 5862 5861 5861 5860 5860 5859 5859 5859 5859 5858 5858 5857 5856 5856 5855 5855 5854 5854
5866 5866 5865 5866 5866 5866 5866 5867 5867 5867 5867 5867 5867 5867 5867 5866 5866 5866 5865 5865 5864 5863 5863 5862 5862 5861 5861 5860 5860 5859 5859 5858 5858 5857 5857 5857 5856 5855 5855 5854 5853 5853 5852
5864 5864 5864 5865 5865 5865 5865 5865 5866 5865 5866 5866 5866 5866 5866 5866 5865 5865 5864 5864 5864 5863 5863 5862 5862 5861 5861 5860 5859 5859 5858 5858 5857 5856 5856 5855 5855 5854 5853 5853 5852 5851 5851